Location: Allison's Woods
(35.8809°N, 80.8140°W)
Time: 04:24:30
(UTC-04:00)

Iridium 39 - Visible Passes

Search period start: 25 April 2014 00:00
Search period end: 05 May 2014 00:00
Orbit: 776 x 779 km, 86.4° (Epoch: 24 April)

Date Brightness Start Highest point End Pass type
(mag) Time Alt. Az. Time Alt. Az. Time Alt. Az.
25 Apr 6.3 20:49:50 10° S 20:55:01 74° W 21:00:14 10° N visible
26 Apr 9.0 22:00:05 10° WSW 22:02:38 14° WNW 22:05:11 10° NW visible
27 Apr 8.3 21:24:32 10° SW 21:28:49 26° W 21:33:08 10° NNW visible
28 Apr 7.1 20:50:08 10° SSW 20:55:09 49° W 21:00:12 10° N visible
30 Apr 8.9 21:25:37 10° WSW 21:29:04 18° WNW 21:32:31 10° NW visible
01 May 8.0 20:50:39 10° SSW 20:55:18 33° W 21:00:00 10° NNW visible
03 May 9.3 21:27:32 10° W 21:29:21 12° WNW 21:31:11 10° NW visible
04 May 8.7 20:51:28 10° SW 20:55:31 23° W 20:59:35 10° NNW visible
